Mitchell, SD

11:41 PM CST on November 18, 2019 (GMT -0600)
Mitchell Municipal

Weather History for KMHE - September, 2019

Change the Weather History Date:

Thursday, September 26, 2019

  Actual Average Record
Temperature  
Mean Temperature 61 °F 58 °F  
Max Temperature 73 °F 71 °F 95 °F (1956)
Min Temperature 48 °F 45 °F 24 °F (1965)
Degree Days  
Heating Degree Days 4 8  
Month to date heating degree days 17 106  
Since 1 July heating degree days 26 123  
Cooling Degree Days 0 1  
Month to date cooling degree days 142 69  
Year to date cooling degree days 936 814  
Growing Degree Days 10 (Base 50)    
Moisture  
Dew Point 46 °F    
Average Humidity 62    
Maximum Humidity 86    
Minimum Humidity 38    
Precipitation  
Precipitation 0.00 in 0.07 in 1.63 in (1929)
Month to date precipitation 7.61 2.03  
Year to date precipitation 32.65 18.38  
Snow  
Snow 0.00 in - 0.00 in ()
Month to date snowfall 0.0  
Since 1 July snowfall 0.0  
Since 1 September snowfall 0.0  
Snow Depth 0.00 in    
Sea Level Pressure  
Sea Level Pressure 29.81 in    
Wind  
Wind Speed 12 mph (SSW)    
Max Wind Speed 23 mph    
Max Gust Speed 34 mph    
Visibility 10 miles    
Events      
T = Trace of Precipitation, MM = Missing Value Source: NWS Daily Summary

Daily Weather History Graph

Daily Weather History Graph

Search for Another Location

Airport or City:

Astronomy

Sep. 26, 2019 Rise Set
Actual Time 7:23 AM CDT 7:22 PM CDT
Civil Twilight 6:55 AM CDT 7:51 PM CDT
Nautical Twilight 6:21 AM CDT 8:24 PM CDT
Astronomical Twilight 5:47 AM CDT 8:58 PM CDT
Moon 4:23 AM CDT (9/26) 6:43 PM CDT (9/26)
Length of Visible Light 12h 56m
Length of Day
11h 58m
Waning Crescent, 6% of the Moon is Illuminated
Sep 26
Waning Crescent
Sep 28
New
Oct 5
First Quarter
Oct 13
Full
Oct 21
Last Quarter

Hourly Weather History & Observations

Time (CDT) Temp. Dew Point Humidity Pressure Visibility Wind Dir Wind Speed Gust Speed Precip Events Conditions
12:53 AM 51.1 °F 45.0 °F 80% 30.01 in 10.0 mi West 9.2 mph - N/A   Clear
1:53 AM 50.0 °F 44.1 °F 80% 30.01 in 10.0 mi WSW 6.9 mph - N/A   Clear
2:53 AM 50.0 °F 44.1 °F 80% 30.00 in 10.0 mi West 8.1 mph - N/A   Clear
3:53 AM 48.9 °F 44.1 °F 83% 30.00 in 10.0 mi WSW 8.1 mph - N/A   Clear
4:53 AM 48.9 °F 44.1 °F 83% 29.99 in 10.0 mi WSW 8.1 mph - N/A   Clear
5:53 AM 48.9 °F 43.0 °F 80% 29.99 in 10.0 mi West 9.2 mph - N/A   Clear
6:53 AM 48.9 °F 43.0 °F 80% 29.99 in 10.0 mi WSW 4.6 mph - N/A   Clear
7:53 AM 50.0 °F 43.0 °F 77% 29.98 in 10.0 mi SW 6.9 mph - N/A   Clear
8:53 AM 52.0 °F 45.0 °F 77% 29.98 in 10.0 mi SSW 5.8 mph - N/A   Clear
9:53 AM 57.0 °F 46.0 °F 67% 29.96 in 10.0 mi South 6.9 mph - N/A   Scattered Clouds
10:53 AM 62.1 °F 48.0 °F 60% 29.94 in 10.0 mi South 6.9 mph - N/A   Overcast
11:53 AM 64.9 °F 48.0 °F 54% 29.91 in 10.0 mi South 11.5 mph - N/A   Overcast
12:53 PM 66.0 °F 46.9 °F 50% 29.86 in 10.0 mi South 11.5 mph - N/A   Overcast
1:53 PM 66.0 °F 44.1 °F 45% 29.81 in 10.0 mi South 13.8 mph 24.2 mph N/A   Overcast
2:53 PM 68.0 °F 48.0 °F 49% 29.75 in 10.0 mi South 13.8 mph 23.0 mph N/A   Overcast
3:53 PM 71.1 °F 45.0 °F 39% 29.68 in 10.0 mi SSE 19.6 mph 27.6 mph N/A   Mostly Cloudy
4:53 PM 72.0 °F 45.0 °F 38% 29.65 in 10.0 mi South 17.3 mph 29.9 mph N/A   Clear
5:53 PM 72.0 °F 45.0 °F 38% 29.61 in 10.0 mi South 16.1 mph 29.9 mph N/A   Clear
6:53 PM 70.0 °F 46.9 °F 44% 29.59 in 10.0 mi South 16.1 mph 25.3 mph N/A   Clear
7:53 PM 64.9 °F 48.9 °F 56% 29.58 in 10.0 mi SSE 12.7 mph - N/A   Clear
8:53 PM 63.0 °F 48.0 °F 58% 29.57 in 10.0 mi SSE 15.0 mph - N/A   Clear
9:53 PM 63.0 °F 48.0 °F 58% 29.55 in 10.0 mi SSE 15.0 mph - N/A   Clear
10:53 PM 64.0 °F 50.0 °F 60% 29.53 in 10.0 mi South 15.0 mph - N/A   Clear
11:53 PM 62.1 °F 51.1 °F 67% 29.52 in 10.0 mi South 13.8 mph - N/A   Clear